Temperature
14 13 13 12 12 11 11 11 11 10 10 10 10 10 9 9 9 9 9 9 9 9 9 9 9 9 9 10 11 11 11 12 12 13 13 13 13 13 14 14 14 14 15
14 13 13 12 12 12 11 11 10 10 10 10 10 9 9 9 9 9 9 9 9 9 9 9 9 9 9 9 10 10 11 11 11 12 12 12 12 13 13 14 14 14 14
14 13 13 12 12 11 11 11 10 10 10 10 9 9 9 9 9 9 8 8 8 8 8 8 8 9 9 9 9 10 10 11 11 11 12 12 12 12 13 13 13 14 14
14 14 13 12 12 12 11 11 10 10 10 10 9 9 9 9 9 9 8 8 8 8 8 8 8 8 8 8 9 9 9 10 10 11 11 12 12 12 12 13 13 13 14
14 14 13 12 12 11 11 10 10 10 10 9 9 9 9 9 9 9 8 8 8 8 8 8 8 8 8 8 8 9 9 9 10 11 11 12 12 12 12 13 13 13 13
14 14 13 12 12 11 11 10 10 10 9 9 9 9 9 9 9 8 8 8 8 8 8 8 8 8 8 8 8 8 8 8 9 10 11 11 12 12 12 12 12 12 12
14 14 13 12 12 11 11 10 10 9 9 9 9 9 8 8 8 9 8 8 8 8 8 8 8 9 8 8 8 8 8 8 8 8 9 10 11 11 11 11 12 12 12
14 14 13 12 12 11 11 10 10 9 9 9 9 9 8 8 8 8 8 8 8 8 8 8 8 8 8 8 8 8 8 8 8 8 8 9 9 10 10 10 11 12 12
15 14 13 12 12 11 10 10 10 9 9 9 8 8 8 8 8 8 8 8 8 8 8 8 8 8 8 7 7 7 7 8 8 8 8 8 8 9 9 10 10 11 11
15 14 13 13 12 12 11 11 10 9 9 9 8 8 8 8 9 9 8 8 8 8 8 8 8 8 7 7 7 7 7 7 8 8 8 8 8 9 9 9 10 11 11
14 14 13 13 12 12 11 11 10 9 9 9 9 9 8 9 9 9 8 8 8 8 8 8 8 8 7 7 7 7 7 7 7 7 8 8 8 8 9 9 10 10 11
14 14 13 13 12 11 11 11 10 9 9 9 9 9 9 9 9 9 8 8 8 8 8 8 8 7 7 7 7 7 7 7 6 7 7 8 9 9 9 10 10 10 10
15 14 14 13 12 12 11 10 10 9 9 9 9 9 9 9 9 8 8 8 8 8 8 7 7 7 7 7 7 7 6 6 6 6 7 8 9 9 10 9 9 10 10
15 14 14 13 12 11 11 10 10 9 9 9 9 9 9 9 9 8 8 8 7 7 7 7 7 7 7 7 6 6 6 6 6 6 7 7 8 9 9 9 9 10 10
15 14 13 12 12 12 11 11 10 9 9 9 8 8 8 8 9 8 8 8 7 7 7 7 7 7 7 7 7 7 6 6 6 6 7 7 8 8 9 9 9 9 9
14 13 13 12 12 11 11 10 10 10 9 9 9 8 8 8 8 8 8 8 8 7 7 6 7 7 7 7 7 7 7 7 7 6 7 7 7 8 8 9 9 9 9
14 13 13 12 12 11 11 10 10 10 10 9 9 9 8 8 8 8 8 8 7 7 7 7 7 7 7 7 7 7 7 7 7 7 7 7 7 7 8 8 8 9 9
13 13 12 12 11 11 11 10 10 10 10 9 9 8 8 8 8 8 8 8 7 7 7 7 7 7 7 7 8 8 7 7 7 7 7 7 7 7 7 8 8 9 9
12 12 11 11 11 11 10 10 10 10 9 9 9 9 8 8 8 8 8 8 7 8 8 8 8 8 8 8 8 7 7 7 7 7 7 7 7 7 8 8 8 9 9
11 12 11 11 11 11 10 10 10 10 9 9 9 9 8 8 8 8 8 7 7 8 8 8 8 8 8 8 7 7 7 7 7 7 7 7 7 7 8 8 8 8 9
11 11 11 10 10 10 10 10 9 9 9 9 9 8 8 8 8 8 8 8 8 8 8 7 8 8 8 7 7 7 7 7 8 7 7 7 7 7 8 8 8 8 9
11 11 11 10 10 9 9 9 9 9 8 8 8 8 8 7 8 8 8 8 8 7 7 7 7 8 8 8 8 8 8 8 8 8 8 8 7 7 8 8 8 8 9
9 10 10 10 9 9 8 9 9 8 8 8 8 8 8 8 7 7 7 7 7 7 7 7 7 7 8 8 8 8 8 8 8 8 8 8 8 8 8 8 8 8 8
9 9 9 9 9 8 8 8 8 8 8 7 7 7 7 7 7 7 7 7 7 7 7 7 7 7 7 7 7 8 8 8 8 8 8 8 8 8 8 8 8 8 8
8 8 8 8 8 8 7 7 7 7 7 7 7 7 7 7 7 7 7 7 7 7 7 7 7 7 7 7 7 7 7 7 8 8 8 8 8 8 8 8 8 8 8
7 7 7 7 7 7 6 6 6 6 6 6 6 6 6 6 6 6 6 6 7 7 7 7 7 7 7 7 7 7 7 7 7 8 8 8 8 8 8 8 8 8 8
Wind_Speed
8 8 8 9 9 9 9 10 10 10 9 10 10 10 11 11 11 10 11 11 12 12 11 11 11 11 10 10 10 10 10 11 12 11 9 7 7 8 5 6 7 7 10
8 8 9 9 9 10 11 10 10 10 11 11 11 11 12 12 11 11 12 12 12 12 12 12 12 11 11 11 11 11 11 11 12 13 11 9 8 7 6 5 5 5 7
7 8 9 10 10 11 11 11 10 11 11 11 11 12 12 12 12 12 12 12 13 12 12 12 12 12 12 11 11 12 11 11 11 12 12 9 8 6 5 5 4 3 5
7 8 9 10 10 10 11 11 11 11 11 12 12 12 12 12 12 12 12 12 12 12 12 12 13 13 13 12 11 12 12 12 12 12 12 10 9 7 6 5 4 4 4
8 9 9 9 10 10 10 11 11 11 12 12 12 12 12 12 12 11 11 12 12 13 13 13 13 12 11 11 12 12 11 11 11 11 11 11 10 7 7 5 5 3 4
8 9 9 9 10 10 10 11 11 11 12 12 12 13 13 11 5 3 10 13 13 14 14 13 13 13 14 16 17 17 15 14 13 12 11 11 10 9 7 6 5 5 4
8 9 9 9 10 10 11 11 11 12 12 12 12 12 13 12 8 9 10 13 15 15 14 13 13 12 10 13 15 19 19 20 18 16 15 14 12 10 9 9 7 7 5
8 8 9 9 10 10 10 11 11 11 11 11 12 12 12 12 9 10 10 13 15 16 15 15 14 14 13 12 13 14 14 15 16 17 16 16 15 11 9 9 8 6 4
9 8 8 9 10 10 11 11 11 11 11 12 12 12 12 13 10 11 11 12 13 15 15 15 14 14 10 8 12 15 15 15 14 14 14 14 11 9 8 9 8 7 6
9 8 8 8 9 10 11 11 11 11 12 12 12 12 13 13 10 9 10 10 13 13 13 13 13 15 9 7 12 14 15 15 14 13 15 16 17 16 14 13 12 10 7
8 8 8 8 9 10 10 10 11 11 12 12 13 13 13 13 12 11 12 10 12 12 12 11 9 11 12 11 12 14 14 13 13 14 13 14 14 14 15 16 14 12 10
7 8 9 9 9 9 10 11 11 11 12 12 12 12 11 11 11 10 12 14 13 13 12 12 7 7 9 10 11 13 12 11 13 13 13 13 13 13 14 15 15 14 11
8 9 9 9 9 10 11 11 11 10 10 10 10 11 10 9 8 11 14 15 15 12 12 11 8 5 8 11 16 15 12 12 12 13 14 14 13 13 12 12 13 13 11
10 10 9 9 10 10 9 10 10 10 10 10 10 11 11 10 9 8 7 8 12 13 13 12 14 15 14 13 10 12 12 12 12 13 13 13 12 12 12 12 12 12 10
11 10 10 10 10 9 10 10 11 10 9 11 11 11 12 12 8 6 8 10 10 8 8 10 10 10 10 11 11 11 11 11 12 13 12 12 12 12 12 12 12 11 12
10 10 10 9 8 9 10 11 12 14 13 14 16 16 13 14 14 13 12 13 14 10 9 11 12 11 11 11 10 10 10 11 12 12 12 13 13 13 12 12 12 13 13
12 11 10 10 9 9 9 10 11 10 16 19 20 19 18 17 16 16 15 13 12 10 10 12 12 11 11 11 10 10 10 10 11 11 12 12 12 12 12 13 13 13 13
13 13 12 10 10 10 10 10 10 11 11 10 11 17 19 18 17 16 13 9 10 10 11 12 12 11 11 11 11 10 10 9 10 11 11 12 12 12 12 13 13 14 14
13 12 11 10 10 9 9 10 10 11 11 11 10 8 12 14 16 14 10 9 11 10 10 11 12 12 11 10 10 10 10 9 10 10 11 11 12 12 12 13 13 14 14
13 14 12 10 10 10 9 10 10 10 10 10 9 10 8 7 8 7 8 9 10 11 10 11 11 11 10 10 10 10 10 10 10 10 10 11 11 11 12 13 13 13 14
13 11 13 12 11 10 9 10 10 10 10 10 10 8 6 9 10 10 9 8 9 10 10 10 10 10 10 9 10 11 12 10 10 10 10 10 10 11 11 11 12 13 13
12 11 10 11 9 8 8 8 9 9 10 11 10 8 6 8 9 9 8 8 8 8 9 9 10 9 9 9 10 10 11 10 10 10 10 10 9 10 10 10 11 12 13
11 11 10 9 8 7 7 8 8 8 9 9 9 9 8 7 8 9 9 8 8 8 8 8 9 9 9 9 9 10 11 10 10 10 11 10 10 10 10 10 12 12 13
10 10 9 8 7 7 7 7 8 8 8 9 9 8 8 8 8 9 8 8 8 8 8 8 9 11 13 11 10 10 11 10 10 10 13 12 12 11 10 10 11 13 13
9 7 7 6 5 5 6 7 8 8 8 8 8 8 8 8 8 8 8 8 9 9 10 9 8 9 12 13 11 10 7 6 7 8 10 11 12 12 12 12 12 12 12
6 5 4 4 4 5 5 6 7 7 7 7 8 8 7 7 8 8 8 8 8 9 9 8 9 10 11 10 10 7 4 7 8 8 9 10 11 11 12 11 13 12 13
Wind_Direction
248 251 259 263 267 265 264 266 268 272 276 274 275 277 277 276 274 269 270 274 267 267 268 266 264 271 275 277 272 268 266 266 270 276 276 282 287 289 286 268 255 233 221
253 257 259 263 268 270 270 269 269 269 272 274 276 277 278 277 275 272 271 271 268 267 266 267 266 265 263 266 271 271 269 270 271 275 278 279 274 281 281 274 257 230 217
256 260 264 268 271 272 275 276 274 272 274 277 278 279 279 279 277 274 271 269 268 267 266 265 265 265 265 266 267 268 269 265 264 269 271 271 272 267 269 262 249 225 204
264 268 271 274 278 280 279 278 276 275 276 278 280 281 281 279 277 274 270 268 267 267 265 264 263 261 260 262 264 262 265 269 266 264 266 264 260 259 253 248 237 214 195
264 272 277 279 280 280 279 278 278 278 278 280 282 281 279 277 272 274 276 273 271 269 266 262 260 259 269 270 271 272 269 263 263 260 260 261 256 252 252 246 237 220 201
260 272 280 282 283 282 281 280 280 279 281 282 280 279 279 277 294 295 276 280 277 272 269 267 264 251 242 237 248 260 269 270 270 271 265 262 264 259 258 254 241 222 215
257 269 277 280 283 285 285 285 284 284 284 281 279 278 278 277 262 243 250 269 271 270 269 267 266 265 249 251 237 233 244 247 253 264 269 271 272 262 262 255 242 238 232
257 269 277 281 283 285 284 284 285 286 285 282 280 280 279 276 252 239 244 261 265 265 265 264 264 267 264 262 262 256 251 244 237 239 250 260 265 275 271 264 259 248 237
256 266 276 282 285 286 285 286 288 287 284 282 279 279 277 277 257 236 241 269 265 265 264 263 262 263 255 237 257 263 263 259 247 242 257 265 286 294 285 269 252 231 220
255 264 273 277 281 283 285 286 287 285 282 282 282 280 279 279 267 230 228 264 267 268 267 263 250 244 253 224 249 256 258 258 259 246 233 241 249 248 240 245 247 237 220
254 260 265 270 275 277 280 280 282 282 283 283 284 282 278 273 267 238 225 252 267 272 274 273 270 198 212 222 241 255 260 269 266 259 252 244 238 236 233 227 229 235 227
247 255 262 267 274 279 277 277 278 279 279 278 279 281 278 269 256 247 221 231 258 271 273 275 279 161 198 222 237 249 254 260 257 256 252 246 240 234 229 226 221 224 228
234 247 256 263 267 271 273 275 274 270 272 280 284 286 287 284 267 226 225 229 233 248 265 280 294 258 245 243 238 238 239 241 242 243 244 244 242 239 234 224 221 220 217
229 240 248 257 262 264 266 269 271 274 275 279 281 284 287 288 285 281 263 244 229 239 255 255 236 239 244 257 252 226 230 236 236 238 241 244 243 236 230 226 218 208 204
233 239 247 255 261 269 267 266 270 271 278 282 286 287 287 287 304 354 313 295 293 301 300 275 266 256 243 240 242 239 233 228 230 237 240 239 238 237 231 222 219 209 204
232 240 246 251 255 261 270 272 239 236 248 244 249 261 277 276 287 290 280 271 269 271 271 263 263 260 256 252 248 243 235 231 231 232 232 234 233 231 229 223 216 212 207
232 240 245 251 255 256 263 272 281 257 230 234 240 242 245 263 273 275 274 269 258 237 243 254 257 257 257 257 252 249 246 237 230 230 231 230 229 228 227 222 216 211 207
239 240 239 247 252 258 263 269 274 282 287 281 248 230 234 242 252 259 259 257 249 224 240 250 254 253 252 251 251 251 250 242 232 229 230 229 226 225 224 221 216 211 204
246 247 241 245 250 255 261 266 271 274 278 283 290 269 224 230 235 241 227 240 258 258 249 251 253 254 251 247 246 250 249 243 234 229 230 229 226 224 223 221 218 211 206
251 246 243 245 250 253 257 263 269 274 278 281 283 287 287 279 279 263 232 244 256 262 263 262 260 257 253 248 247 246 245 240 235 231 229 226 224 224 224 222 217 210 206
265 250 216 236 246 252 259 265 270 276 281 283 284 288 299 291 288 287 281 270 264 265 266 266 264 259 251 245 245 244 243 240 234 231 226 224 222 221 221 220 219 214 206
269 262 249 241 243 245 256 265 273 279 282 285 288 284 244 266 281 285 287 286 281 275 273 268 266 260 253 247 243 242 241 238 233 227 224 222 223 222 219 216 214 213 206
269 262 255 248 246 241 249 263 272 277 283 287 290 293 290 287 292 295 297 295 293 288 282 275 268 265 259 251 247 243 241 240 234 228 224 219 218 217 218 218 214 210 204
280 269 260 253 251 257 262 271 279 284 288 291 294 295 295 297 297 300 306 305 302 298 291 282 272 269 267 261 251 246 243 241 239 232 226 220 214 212 212 216 216 210 203
288 276 266 263 265 271 278 284 289 293 297 299 299 299 301 304 303 306 312 314 315 311 308 302 287 279 276 270 261 253 237 222 238 251 231 221 217 212 209 210 210 207 200
293 286 281 276 276 283 289 293 292 296 300 302 303 305 308 309 310 315 317 318 320 317 313 309 306 301 290 277 271 268 221 207 220 242 248 230 219 216 211 209 207 201 195
Height
1526 1525 1524 1523 1522 1521 1519 1518 1516 1515 1513 1511 1509 1507 1506 1504 1503 1501 1500 1499 1497 1496 1495 1495 1493 1492 1492 1492 1492 1491 1490 1489 1486 1485 1484 1482 1480 1479 1479 1479 1479 1480 1481
1522 1521 1520 1519 1518 1517 1516 1514 1512 1510 1508 1507 1504 1503 1501 1499 1497 1496 1494 1493 1492 1491 1490 1489 1488 1488 1487 1486 1486 1486 1485 1484 1483 1481 1480 1479 1477 1476 1475 1475 1475 1475 1477
1519 1518 1516 1515 1514 1512 1511 1509 1507 1505 1503 1501 1499 1497 1495 1494 1492 1490 1489 1487 1486 1486 1485 1484 1483 1482 1481 1481 1481 1480 1480 1479 1478 1477 1476 1475 1474 1473 1472 1472 1471 1471 1473
1515 1514 1513 1511 1510 1508 1506 1504 1502 1500 1498 1496 1494 1492 1490 1488 1486 1485 1483 1482 1481 1480 1479 1478 1477 1477 1476 1476 1475 1475 1475 1474 1474 1473 1472 1471 1470 1469 1469 1468 1468 1468 1469
1511 1510 1509 1507 1505 1503 1501 1499 1497 1494 1492 1490 1488 1486 1483 1482 1481 1480 1478 1477 1476 1475 1474 1472 1472 1471 1470 1470 1470 1470 1470 1470 1469 1468 1467 1467 1466 1466 1465 1465 1465 1465 1466
1506 1505 1504 1502 1500 1498 1496 1493 1491 1489 1487 1484 1482 1479 1478 1476 1475 1473 1472 1470 1470 1469 1468 1467 1466 1464 1463 1462 1462 1463 1463 1464 1464 1464 1463 1463 1462 1462 1462 1462 1462 1462 1462
1502 1500 1499 1497 1495 1493 1491 1489 1486 1484 1481 1478 1476 1473 1471 1470 1468 1467 1465 1464 1463 1462 1462 1460 1460 1460 1458 1458 1456 1455 1455 1456 1457 1457 1457 1458 1458 1459 1458 1458 1458 1458 1459
1497 1496 1495 1492 1490 1488 1485 1483 1480 1478 1475 1472 1470 1468 1465 1464 1462 1461 1459 1458 1457 1456 1455 1454 1453 1452 1452 1452 1451 1451 1450 1450 1450 1450 1450 1451 1453 1453 1453 1453 1453 1455 1455
1493 1491 1490 1488 1485 1483 1480 1478 1475 1472 1469 1467 1465 1462 1460 1458 1457 1455 1454 1452 1451 1450 1449 1448 1446 1446 1445 1444 1444 1444 1444 1444 1444 1443 1444 1444 1445 1447 1448 1449 1450 1451 1452
1488 1486 1484 1482 1480 1477 1475 1472 1469 1467 1464 1461 1459 1457 1455 1453 1451 1449 1448 1446 1445 1444 1443 1441 1439 1439 1438 1437 1437 1437 1436 1437 1438 1438 1437 1437 1438 1439 1441 1443 1445 1447 1447
1482 1481 1479 1477 1474 1472 1469 1466 1464 1461 1459 1456 1453 1451 1449 1447 1445 1443 1442 1441 1440 1439 1437 1436 1435 1432 1431 1431 1430 1430 1430 1430 1430 1431 1431 1432 1432 1433 1435 1437 1439 1442 1443
1476 1475 1474 1472 1469 1467 1464 1461 1458 1456 1453 1450 1448 1445 1443 1442 1440 1438 1436 1435 1433 1432 1431 1430 1429 1426 1425 1424 1423 1423 1422 1422 1423 1424 1425 1425 1426 1427 1429 1431 1433 1435 1438
1470 1469 1468 1466 1464 1461 1459 1456 1453 1451 1448 1446 1444 1441 1439 1437 1435 1432 1430 1429 1427 1425 1424 1423 1422 1420 1418 1417 1416 1416 1416 1415 1416 1417 1417 1418 1420 1421 1423 1425 1427 1430 1433
1464 1463 1461 1460 1458 1456 1453 1451 1449 1446 1444 1441 1439 1436 1434 1432 1430 1428 1426 1424 1421 1419 1417 1416 1414 1413 1411 1411 1410 1409 1408 1409 1409 1410 1411 1412 1414 1415 1416 1419 1421 1424 1427
1457 1456 1455 1454 1452 1450 1447 1445 1442 1440 1438 1435 1433 1431 1428 1426 1424 1422 1420 1418 1417 1415 1412 1411 1409 1408 1406 1404 1404 1403 1403 1402 1402 1403 1404 1405 1407 1408 1410 1413 1415 1418 1421
1450 1449 1448 1448 1446 1444 1442 1439 1436 1433 1430 1427 1425 1423 1420 1419 1416 1414 1413 1411 1409 1407 1405 1404 1403 1401 1400 1399 1398 1397 1396 1396 1396 1396 1397 1399 1400 1402 1404 1407 1409 1412 1415
1442 1442 1441 1441 1440 1437 1435 1433 1431 1428 1424 1421 1418 1416 1414 1412 1410 1408 1406 1404 1402 1400 1398 1397 1396 1395 1393 1393 1392 1391 1390 1390 1390 1390 1391 1392 1394 1396 1398 1400 1403 1406 1409
1435 1434 1433 1432 1432 1430 1429 1427 1424 1422 1419 1416 1413 1410 1408 1406 1404 1401 1399 1397 1395 1393 1391 1390 1389 1388 1387 1386 1386 1385 1384 1384 1383 1383 1384 1386 1387 1389 1392 1394 1397 1400 1403
1428 1427 1426 1425 1425 1424 1422 1420 1418 1416 1412 1409 1407 1405 1403 1400 1397 1395 1393 1391 1389 1388 1386 1384 1382 1381 1381 1380 1379 1379 1379 1378 1378 1378 1379 1380 1382 1384 1386 1388 1391 1394 1398
1420 1419 1418 1418 1417 1417 1415 1414 1412 1410 1407 1404 1401 1400 1398 1395 1393 1390 1388 1385 1383 1381 1379 1378 1376 1375 1374 1373 1373 1373 1373 1372 1372 1372 1373 1374 1376 1378 1381 1383 1386 1389 1392
1414 1412 1410 1409 1409 1409 1408 1407 1405 1403 1401 1398 1396 1394 1392 1389 1387 1385 1382 1380 1377 1375 1373 1371 1370 1369 1368 1367 1367 1367 1367 1367 1367 1367 1368 1370 1371 1373 1375 1378 1381 1384 1388
1407 1406 1404 1403 1402 1402 1401 1400 1399 1397 1395 1393 1391 1389 1386 1384 1382 1379 1377 1374 1372 1369 1367 1365 1363 1362 1362 1361 1361 1360 1361 1362 1362 1363 1364 1365 1366 1369 1371 1373 1376 1379 1382
1400 1399 1398 1397 1396 1395 1395 1394 1393 1391 1390 1388 1386 1384 1381 1379 1377 1374 1372 1369 1366 1364 1361 1359 1357 1356 1355 1355 1354 1354 1355 1356 1357 1358 1359 1360 1362 1364 1366 1368 1371 1374 1377
1395 1393 1392 1391 1391 1390 1389 1388 1388 1386 1385 1383 1380 1378 1376 1374 1372 1370 1367 1364 1361 1358 1356 1353 1351 1350 1349 1348 1348 1348 1349 1350 1351 1353 1354 1356 1358 1360 1362 1364 1367 1370 1373
1390 1388 1387 1386 1386 1385 1384 1383 1383 1381 1380 1378 1376 1374 1372 1370 1368 1366 1363 1360 1357 1354 1351 1349 1346 1344 1343 1342 1342 1343 1343 1344 1346 1348 1349 1351 1354 1356 1358 1360 1363 1366 1369
1385 1383 1382 1382 1381 1380 1380 1379 1378 1376 1375 1373 1371 1369 1368 1366 1364 1362 1359 1356 1353 1350 1347 1344 1342 1339 1337 1336 1336 1337 1337 1339 1341 1343 1345 1347 1349 1352 1354 1356 1359 1362 1365